#timestamp,LO_Frequency,Hit,StdDev 
1525903215.1,286046998.1,N
1525903235.8,286047000.9,N
1525903255.7,286046998.8,N
1525903275.5,286046998.1,N
1525903295.3,286046996.5,N
1525903315.2,286046997.2,N
1525903335.0,286046997.1,N
1525903335.9,286046997.1,N
1525903355.8,286046994.9,N
1525903375.6,286046997.6,N
1525903395.4,286046996.6,N
1525903415.3,286046999.1,N
1525903435.1,286046997.7,N
1525903455.9,286046999.4,N
1525903475.7,286046998.8,N
1525903495.5,286046997.1,N
1525903515.4,286046997.1,N
1525903535.2,286046994.9,N
1525903555.0,286046994.9,N
1525903555.9,286046994.9,N
1525903575.8,286046997.4,N
1525903595.6,286046996.1,N
1525903615.5,286046995.9,N
1525903635.3,286046995.5,N
1525903655.1,286046995.1,N
1525903675.9,286046995.4,N
1525903695.7,286046995.2,Y
1525903715.5,286047002.8,P
1525903735.4,286047002.0,N
1525903755.2,286047002.5,N
1525903775.1,286046999.4,N
1525903776.0,286046999.4,N
1525903795.8,286046997.3,N
1525903815.6,286046998.7,N
1525903835.5,286046999.3,N
1525903855.3,286046998.4,N
1525903875.2,286046999.0,N
1525903895.9,286046999.3,N
1525903915.7,286047001.2,N
1525903935.6,286046998.2,N
1525903955.4,286047000.8,N
1525903975.2,286047001.2,N
1525903995.1,286046997.0,N
1525903996.0,286046997.0,N
1525904015.8,286046997.4,N
1525904035.6,286046997.1,N
1525904055.5,286046999.2,N
1525904075.3,286046996.9,N
1525904095.2,286046997.5,N
1525904115.0,286046997.9,N
1525904115.9,286046997.9,N
1525904135.8,286046999.2,N
1525904155.6,286046996.7,N
1525904175.4,286046997.3,N
1525904195.3,286046997.0,N
1525904215.1,286046997.5,N
1525904235.8,286046998.0,N
1525904255.7,286046995.0,N
1525904275.5,286046997.7,N
1525904295.4,286046997.8,N
1525904315.2,286046998.0,N
1525904335.0,286046997.9,N
1525904335.9,286046997.9,N
1525904355.8,286046997.5,N
1525904375.6,286046997.4,N
1525904395.5,286046994.9,Y
1525904415.3,286046999.1,P
1525904435.1,286046997.0,P
1525904455.9,286046996.7,P
1525904475.7,286046999.3,N
1525904495.6,286046996.6,Y
1525904515.4,286047000.4,P
1525904535.2,286047002.3,N
1525904555.1,286047004.4,N
1525904556.0,286047004.4,N
1525904575.8,286047002.4,N
1525904595.7,286047000.2,N
1525904615.5,286047002.6,N
1525904635.3,286046999.8,N
1525904655.2,286046999.9,N
1525904675.0,286047002.4,N
1525904675.9,286047002.4,N
1525904695.7,286046999.7,N
1525904715.6,286046999.7,N
1525904735.4,286047002.4,N
1525904755.3,286047000.1,N
1525904775.1,286047000.0,N
1525904776.0,286047000.0,N
1525904795.8,286047000.0,N
1525904815.7,286047000.8,N
1525904835.5,286047000.4,N
1525904855.4,286047000.7,N
1525904875.2,286046999.9,N
1525904895.0,286047000.5,N
1525904895.9,286047000.5,N
1525904915.8,286046999.1,N
1525904935.6,286046996.9,N
1525904955.4,286046997.1,N
1525904975.3,286046999.6,N
1525904995.1,286046996.6,N
1525905015.9,286046997.7,N
1525905035.7,286046995.3,N
1525905055.5,286046996.1,N
1525905075.4,286046995.7,N
1525905095.2,286046995.8,N
1525905115.0,286046995.2,N
1525905115.9,286046995.2,N
1525905135.8,286046995.5,N
1525905155.6,286046995.8,N
1525905175.5,286046995.5,N
1525905195.3,286046995.9,N
1525905215.1,286046996.3,N
1525905235.9,286046993.8,N
1525905255.7,286046994.1,N
1525905275.6,286046994.7,N
1525905295.4,286046993.9,N
1525905315.2,286046996.4,N
1525905335.1,286046991.7,Y
1525905336.0,286046991.7,P
1525905355.8,286046998.0,N
1525905375.6,286046996.5,N
1525905395.5,286046999.1,N
1525905415.3,286046996.9,N
1525905435.2,286046996.8,N
1525905455.9,286046998.5,N
1525905475.7,286046998.4,N
1525905495.6,286046996.9,N
1525905515.4,286046999.4,N
1525905535.2,286046998.8,N
1525905555.1,286046999.5,N
1525905556.0,286046999.5,N
1525905575.8,286046997.2,N
1525905595.7,286046996.5,N
1525905615.5,286046997.2,N
1525905635.3,286046999.1,N
1525905655.2,286046999.1,N
1525905675.0,286046999.6,N
1525905675.9,286046999.6,N
1525905695.8,286046996.5,N
1525905715.6,286046999.6,N
1525905735.4,286046999.4,N
1525905755.3,286047001.1,N
1525905775.1,286047002.7,N
1525905795.8,286047000.4,N
1525905815.7,286047001.0,N
1525905835.5,286046998.6,N
1525905855.4,286047002.6,N
1525905875.2,286047002.7,N
1525905895.0,286047000.4,N
1525905895.9,286047000.4,N
1525905915.8,286047000.2,N
1525905935.6,286046999.8,N
1525905955.5,286047000.6,N
1525905975.3,286047000.9,N
1525905995.1,286047000.4,N
1525906015.9,286047000.3,N
1525906035.7,286047002.4,N
1525906055.5,286047000.2,N
1525906075.4,286047001.9,N
1525906095.2,286047004.3,N
1525906115.1,286047002.5,N
1525906116.0,286047002.5,N
1525906135.8,286047000.0,N
1525906155.6,286047000.0,N
1525906175.5,286047001.1,N
1525906195.3,286047000.3,N
1525906215.1,286046999.7,N
1525906235.9,286046999.7,N
1525906255.7,286047001.5,N
1525906275.6,286047002.6,N
1525906295.4,286047000.1,N
1525906315.2,286047000.1,N
1525906335.1,286047002.4,N
1525906336.0,286047002.4,N
1525906355.8,286047002.8,N
1525906375.7,286047000.2,N
1525906395.5,286047002.7,N
1525906415.3,286047001.4,N
1525906435.2,286047002.3,N
1525906455.9,286047002.7,N
1525906475.7,286047001.6,N
1525906495.6,286047002.4,N
1525906515.4,286047002.3,N
1525906535.3,286047002.2,N
1525906555.1,286047002.5,N
1525906556.0,286047002.5,N
1525906575.8,286047000.1,N
1525906595.7,286047000.4,N
1525906615.5,286047000.7,N
1525906635.4,286046999.7,N
1525906655.2,286047001.4,N
1525906675.0,286047002.6,N
1525906675.9,286047002.6,N
1525906695.8,286047002.5,N
1525906715.6,286047004.3,Y
1525906735.4,286047002.7,P
1525906755.3,286047002.4,P
1525906775.1,286047004.4,P
1525906795.9,286047001.8,N
